Location: Sandy Point Observatory
(37.2521°N, 76.9605°W)
Time: 06:07:21
(UTC-05:00)

ISS - Visible Passes

Search period start: 19 December 2018 00:00
Search period end: 29 December 2018 00:00
Orbit: 401 x 408 km, 51.6° (Epoch: 20 December)

Date Brightness Start Highest point End Pass type
(mag) Time Alt. Az. Time Alt. Az. Time Alt. Az.
21 Dec -0.6 06:29:52 10° S 06:32:08 18° SE 06:34:25 10° E visible
23 Dec -2.7 06:20:48 10° SSW 06:23:57 46° SE 06:27:08 10° ENE visible
24 Dec -1.3 05:29:13 10° S 05:31:51 22° SE 05:34:30 10° ENE visible
25 Dec -0.4 04:40:14 11° ESE 04:40:14 11° ESE 04:40:51 10° ESE visible
25 Dec -3.8 06:13:00 13° WSW 06:15:52 62° NW 06:19:08 10° NE visible
26 Dec -3.1 05:24:06 53° E 05:24:06 53° E 05:26:53 10° NE visible
27 Dec -2.8 06:07:29 26° NW 06:07:54 27° NNW 06:10:47 10° NNE visible
28 Dec -1.3 05:17:53 16° NE 05:17:53 16° NE 05:18:43 10° NE visible
28 Dec -1.5 06:51:40 10° NW 06:52:38 11° NNW 06:53:36 10° N visible
